Time,TemperatureF,DewpointF,PressureIn,WindDirection,WindDirectionDegrees,WindSpeedMPH,WindSpeedGustMPH,Humidity,HourlyPrecipIn,Conditions,Clouds,dailyrainin,SoftwareType,DateUTC
2013-02-19 00:00:00,36.5,28.7,30.17,East,90,0.0,0.2,73,0.00,,,0.00,WUHU216HW,2013-02-19 05:00:00,
2013-02-19 00:01:00,36.7,29.2,30.17,East,90,0.2,0.2,74,0.00,,,0.00,WUHU216HW,2013-02-19 05:01:00,
2013-02-19 00:06:00,36.7,28.9,30.17,East,90,0.0,0.2,73,0.00,,,0.00,WUHU216HW,2013-02-19 05:06:00,
2013-02-19 00:11:00,36.7,28.5,30.17,East,90,0.0,0.2,72,0.00,,,0.00,WUHU216HW,2013-02-19 05:11:00,
2013-02-19 00:16:00,36.9,28.7,30.17,East,90,0.0,0.0,72,0.00,,,0.00,WUHU216HW,2013-02-19 05:16:00,
2013-02-19 00:21:00,36.9,29.3,30.17,East,90,0.0,0.2,74,0.00,,,0.00,WUHU216HW,2013-02-19 05:21:00,
2013-02-19 00:26:00,36.7,29.9,30.17,East,90,0.0,0.2,76,0.00,,,0.00,WUHU216HW,2013-02-19 05:26:00,
2013-02-19 00:31:00,36.7,29.5,30.17,East,90,0.0,0.4,75,0.00,,,0.00,WUHU216HW,2013-02-19 05:31:00,
2013-02-19 00:36:00,36.9,29.3,30.17,East,90,0.0,0.4,74,0.00,,,0.00,WUHU216HW,2013-02-19 05:36:00,
2013-02-19 00:41:00,36.9,30.3,30.17,East,90,0.0,0.0,77,0.00,,,0.00,WUHU216HW,2013-02-19 05:41:00,
2013-02-19 00:46:00,36.7,30.2,30.17,East,90,0.0,0.0,77,0.00,,,0.00,WUHU216HW,2013-02-19 05:46:00,
2013-02-19 00:51:00,36.7,29.9,30.16,East,90,0.0,0.0,76,0.00,,,0.00,WUHU216HW,2013-02-19 05:51:00,
2013-02-19 00:56:00,36.7,29.9,30.16,East,90,0.4,0.7,76,0.00,,,0.00,WUHU216HW,2013-02-19 05:56:00,
2013-02-19 01:01:00,36.9,30.3,30.16,East,90,0.4,0.9,77,0.00,,,0.00,WUHU216HW,2013-02-19 06:01:00,
2013-02-19 01:06:00,37.1,30.3,30.16,East,90,0.0,0.9,76,0.00,,,0.00,WUHU216HW,2013-02-19 06:06:00,
2013-02-19 01:11:00,37.1,30.5,30.15,East,90,0.0,0.4,77,0.00,,,0.00,WUHU216HW,2013-02-19 06:11:00,
2013-02-19 01:18:00,37.1,30.3,30.16,East,90,0.0,0.0,76,0.00,,,0.00,WUHU216HW,2013-02-19 06:18:00,
2013-02-19 01:23:00,37.3,30.7,30.15,East,90,0.0,0.0,77,0.00,,,0.00,WUHU216HW,2013-02-19 06:23:00,
2013-02-19 01:28:00,37.4,30.6,30.15,East,90,0.0,0.0,76,0.00,,,0.00,WUHU216HW,2013-02-19 06:28:00,
2013-02-19 01:34:00,37.4,30.9,30.15,East,90,0.0,0.0,77,0.00,,,0.00,WUHU216HW,2013-02-19 06:34:00,
2013-02-19 01:39:00,37.8,31.2,30.15,East,90,0.0,0.0,77,0.00,,,0.00,WUHU216HW,2013-02-19 06:39:00,
2013-02-19 01:44:00,37.8,31.2,30.14,East,90,0.0,0.0,77,0.00,,,0.00,WUHU216HW,2013-02-19 06:44:00,
2013-02-19 01:49:00,38.0,31.1,30.14,East,90,0.0,0.0,76,0.00,,,0.00,WUHU216HW,2013-02-19 06:49:00,
2013-02-19 01:54:00,38.0,31.1,30.14,East,90,0.0,0.0,76,0.00,,,0.00,WUHU216HW,2013-02-19 06:54:00,
2013-02-19 02:00:00,38.0,31.1,30.14,East,90,0.0,0.0,76,0.00,,,0.00,WUHU216HW,2013-02-19 07:00:00,
2013-02-19 02:05:00,38.2,31.2,30.14,East,90,0.0,0.0,76,0.00,,,0.00,WUHU216HW,2013-02-19 07:05:00,
2013-02-19 02:10:00,38.2,31.2,30.13,East,90,0.0,0.0,76,0.00,,,0.00,WUHU216HW,2013-02-19 07:10:00,
2013-02-19 02:15:00,38.0,31.4,30.12,East,90,0.0,0.0,77,0.00,,,0.00,WUHU216HW,2013-02-19 07:15:00,
2013-02-19 02:20:00,37.8,31.2,30.12,East,90,0.0,0.0,77,0.00,,,0.00,WUHU216HW,2013-02-19 07:20:00,
2013-02-19 02:25:00,37.8,30.9,30.11,East,90,0.0,0.0,76,0.00,,,0.00,WUHU216HW,2013-02-19 07:25:00,
2013-02-19 02:30:00,37.8,30.9,30.11,East,90,0.0,0.2,76,0.00,,,0.00,WUHU216HW,2013-02-19 07:30:00,
2013-02-19 02:35:00,37.8,30.9,30.11,East,90,0.0,0.2,76,0.00,,,0.00,WUHU216HW,2013-02-19 07:35:00,
2013-02-19 02:40:00,37.8,31.2,30.10,East,90,0.7,0.7,77,0.00,,,0.00,WUHU216HW,2013-02-19 07:40:00,
2013-02-19 02:45:00,37.6,31.1,30.10,East,90,0.2,0.7,77,0.00,,,0.00,WUHU216HW,2013-02-19 07:45:00,
2013-02-19 02:50:00,37.8,31.2,30.10,East,90,0.0,0.7,77,0.00,,,0.00,WUHU216HW,2013-02-19 07:50:00,
2013-02-19 02:55:00,37.8,30.9,30.10,East,90,0.0,0.2,76,0.00,,,0.00,WUHU216HW,2013-02-19 07:55:00,
2013-02-19 03:00:00,37.8,30.9,30.09,East,90,0.0,0.2,76,0.00,,,0.00,WUHU216HW,2013-02-19 08:00:00,
2013-02-19 03:05:00,37.8,30.9,30.09,East,90,0.0,0.2,76,0.00,,,0.00,WUHU216HW,2013-02-19 08:05:00,
2013-02-19 03:10:00,38.0,31.1,30.09,East,90,0.0,0.4,76,0.00,,,0.00,WUHU216HW,2013-02-19 08:10:00,
2013-02-19 03:15:00,38.0,31.4,30.09,East,90,0.0,0.4,77,0.00,,,0.00,WUHU216HW,2013-02-19 08:15:00,
2013-02-19 03:20:00,38.0,31.4,30.09,East,90,0.4,0.4,77,0.00,,,0.00,WUHU216HW,2013-02-19 08:20:00,
2013-02-19 03:25:00,38.2,31.6,30.07,East,90,0.0,0.4,77,0.00,,,0.00,WUHU216HW,2013-02-19 08:25:00,
2013-02-19 03:30:00,38.2,31.6,30.07,East,90,0.0,0.4,77,0.00,,,0.00,WUHU216HW,2013-02-19 08:30:00,
2013-02-19 03:35:00,38.2,31.6,30.07,East,90,0.0,0.0,77,0.00,,,0.00,WUHU216HW,2013-02-19 08:35:00,
2013-02-19 03:40:00,38.3,31.8,30.07,East,90,0.0,0.0,77,0.00,,,0.00,WUHU216HW,2013-02-19 08:40:00,
2013-02-19 03:45:00,38.3,31.8,30.07,East,90,0.0,0.0,77,0.00,,,0.00,WUHU216HW,2013-02-19 08:45:00,
2013-02-19 03:50:00,38.3,32.1,30.07,East,90,0.0,0.0,78,0.00,,,0.00,WUHU216HW,2013-02-19 08:50:00,
2013-02-19 03:55:00,38.3,32.1,30.06,East,90,0.0,0.0,78,0.00,,,0.00,WUHU216HW,2013-02-19 08:55:00,
2013-02-19 04:00:00,38.3,32.1,30.06,East,90,0.0,0.0,78,0.00,,,0.00,WUHU216HW,2013-02-19 09:00:00,
2013-02-19 04:05:00,38.5,32.6,30.06,East,90,0.0,0.0,79,0.00,,,0.00,WUHU216HW,2013-02-19 09:05:00,
2013-02-19 04:10:00,38.5,32.6,30.06,East,90,0.0,0.0,79,0.00,,,0.00,WUHU216HW,2013-02-19 09:10:00,
2013-02-19 04:15:00,38.5,32.6,30.05,East,90,0.0,0.0,79,0.00,,,0.00,WUHU216HW,2013-02-19 09:15:00,
2013-02-19 04:20:00,38.5,32.6,30.06,East,90,0.0,0.0,79,0.00,,,0.00,WUHU216HW,2013-02-19 09:20:00,
2013-02-19 04:25:00,38.7,32.8,30.05,East,90,0.2,0.9,79,0.00,,,0.00,WUHU216HW,2013-02-19 09:25:00,
2013-02-19 04:30:00,38.7,32.8,30.05,East,90,0.0,0.9,79,0.00,,,0.00,WUHU216HW,2013-02-19 09:30:00,
2013-02-19 04:35:00,38.7,32.8,30.05,East,90,0.0,0.4,79,0.00,,,0.00,WUHU216HW,2013-02-19 09:35:00,
2013-02-19 04:40:00,38.7,32.8,30.05,East,90,0.0,0.0,79,0.00,,,0.00,WUHU216HW,2013-02-19 09:40:00,
2013-02-19 04:45:00,38.7,32.8,30.05,East,90,0.0,0.0,79,0.00,,,0.00,WUHU216HW,2013-02-19 09:45:00,
2013-02-19 04:50:00,38.7,33.1,30.05,East,90,0.0,0.0,80,0.00,,,0.00,WUHU216HW,2013-02-19 09:50:00,
2013-02-19 04:55:00,38.7,32.8,30.05,East,90,0.0,0.0,79,0.00,,,0.00,WUHU216HW,2013-02-19 09:55:00,
2013-02-19 05:00:00,38.7,33.1,30.04,East,90,0.0,0.2,80,0.00,,,0.00,WUHU216HW,2013-02-19 10:00:00,
2013-02-19 05:05:00,38.7,33.1,30.04,East,90,0.0,0.2,80,0.00,,,0.00,WUHU216HW,2013-02-19 10:05:00,
2013-02-19 05:10:00,38.5,32.9,30.04,East,90,0.0,0.4,80,0.00,,,0.00,WUHU216HW,2013-02-19 10:10:00,
2013-02-19 05:15:00,38.5,32.9,30.04,East,90,0.0,0.4,80,0.00,,,0.00,WUHU216HW,2013-02-19 10:15:00,
2013-02-19 05:20:00,38.5,33.2,30.04,East,90,0.0,0.2,81,0.00,,,0.00,WUHU216HW,2013-02-19 10:20:00,
2013-02-19 05:25:00,38.5,32.9,30.04,East,90,0.0,0.4,80,0.00,,,0.00,WUHU216HW,2013-02-19 10:25:00,
2013-02-19 05:30:00,38.5,32.9,30.04,East,90,0.0,0.4,80,0.00,,,0.00,WUHU216HW,2013-02-19 10:30:00,
2013-02-19 05:35:00,38.7,33.4,30.03,East,90,0.0,0.4,81,0.00,,,0.00,WUHU216HW,2013-02-19 10:35:00,
2013-02-19 05:40:00,38.7,34.0,30.03,East,90,0.4,1.1,83,0.00,,,0.00,WUHU216HW,2013-02-19 10:40:00,
2013-02-19 05:45:00,38.9,33.8,30.03,East,90,0.2,1.1,82,0.00,,,0.00,WUHU216HW,2013-02-19 10:45:00,
2013-02-19 05:50:00,39.1,34.0,30.03,East,90,0.0,0.7,82,0.00,,,0.00,WUHU216HW,2013-02-19 10:50:00,
2013-02-19 05:55:00,39.2,34.8,30.03,East,90,0.0,0.9,84,0.00,,,0.00,WUHU216HW,2013-02-19 10:55:00,
2013-02-19 06:00:00,39.4,35.8,30.03,East,90,0.4,0.9,87,0.00,,,0.00,WUHU216HW,2013-02-19 11:00:00,
2013-02-19 06:05:00,39.8,36.2,30.03,East,90,0.2,1.1,87,0.00,,,0.00,WUHU216HW,2013-02-19 11:05:00,
2013-02-19 06:10:00,40.0,35.8,30.03,East,90,0.0,1.1,85,0.00,,,0.00,WUHU216HW,2013-02-19 11:10:00,
2013-02-19 06:15:00,40.0,35.8,30.02,East,90,0.0,1.1,85,0.00,,,0.00,WUHU216HW,2013-02-19 11:15:00,
2013-02-19 06:20:00,40.1,36.3,30.03,East,90,0.0,0.4,86,0.00,,,0.00,WUHU216HW,2013-02-19 11:20:00,
2013-02-19 06:25:00,40.3,36.1,30.02,East,90,0.0,0.4,85,0.00,,,0.00,WUHU216HW,2013-02-19 11:25:00,
2013-02-19 06:30:00,40.3,35.8,30.03,East,90,0.0,0.4,84,0.00,,,0.00,WUHU216HW,2013-02-19 11:30:00,
2013-02-19 06:35:00,40.3,35.8,30.02,East,90,0.0,0.2,84,0.00,,,0.00,WUHU216HW,2013-02-19 11:35:00,
2013-02-19 06:40:00,40.3,35.8,30.02,East,90,0.0,1.1,84,0.00,,,0.00,WUHU216HW,2013-02-19 11:40:00,
2013-02-19 06:45:00,40.3,35.8,30.02,East,90,0.0,1.1,84,0.00,,,0.00,WUHU216HW,2013-02-19 11:45:00,
2013-02-19 06:50:00,40.3,35.8,30.02,East,90,0.0,0.2,84,0.00,,,0.00,WUHU216HW,2013-02-19 11:50:00,
2013-02-19 06:55:00,40.3,35.8,30.02,East,90,0.0,0.0,84,0.00,,,0.00,WUHU216HW,2013-02-19 11:55:00,
2013-02-19 07:00:00,40.3,35.8,30.01,East,90,0.0,0.0,84,0.00,,,0.00,WUHU216HW,2013-02-19 12:00:00,
2013-02-19 07:05:00,40.5,36.0,30.01,East,90,0.0,0.0,84,0.00,,,0.00,WUHU216HW,2013-02-19 12:05:00,
2013-02-19 07:10:00,40.7,36.2,30.01,East,90,0.0,0.4,84,0.00,,,0.00,WUHU216HW,2013-02-19 12:10:00,
2013-02-19 07:15:00,40.7,36.2,30.02,East,90,0.0,0.4,84,0.00,,,0.00,WUHU216HW,2013-02-19 12:15:00,
2013-02-19 07:20:00,40.9,36.4,30.02,East,90,0.0,0.0,84,0.00,,,0.00,WUHU216HW,2013-02-19 12:20:00,
2013-02-19 07:25:00,41.0,37.1,30.03,East,90,0.0,0.0,86,0.00,,,0.00,WUHU216HW,2013-02-19 12:25:00,
2013-02-19 07:30:00,41.4,37.4,30.03,East,90,0.0,0.0,86,0.00,,,0.00,WUHU216HW,2013-02-19 12:30:00,
2013-02-19 07:35:00,41.4,37.2,30.03,East,90,0.0,0.0,85,0.00,,,0.00,WUHU216HW,2013-02-19 12:35:00,
2013-02-19 07:40:00,41.8,37.8,30.04,East,90,0.0,0.0,86,0.00,,,0.00,WUHU216HW,2013-02-19 12:40:00,
2013-02-19 07:45:00,42.1,38.2,30.03,East,90,0.0,0.4,86,0.00,,,0.00,WUHU216HW,2013-02-19 12:45:00,
2013-02-19 07:50:00,42.5,38.5,30.04,East,90,0.0,0.4,86,0.00,,,0.00,WUHU216HW,2013-02-19 12:50:00,
2013-02-19 07:55:00,43.2,39.6,30.04,East,90,0.0,0.0,87,0.00,,,0.00,WUHU216HW,2013-02-19 12:55:00,
2013-02-19 08:00:00,43.9,40.6,30.04,East,90,0.0,0.0,88,0.00,,,0.00,WUHU216HW,2013-02-19 13:00:00,
2013-02-19 08:05:00,44.3,40.7,30.04,East,90,0.0,0.0,87,0.00,,,0.00,WUHU216HW,2013-02-19 13:05:00,
2013-02-19 08:10:00,44.6,41.1,30.04,East,90,0.0,0.0,87,0.00,,,0.00,WUHU216HW,2013-02-19 13:10:00,
2013-02-19 08:15:00,45.2,41.6,30.04,East,90,0.0,0.0,87,0.00,,,0.00,WUHU216HW,2013-02-19 13:15:00,
2013-02-19 08:20:00,45.7,42.1,30.05,East,90,0.0,0.0,87,0.00,,,0.00,WUHU216HW,2013-02-19 13:20:00,
2013-02-19 08:25:00,46.3,42.3,30.05,East,90,0.0,0.0,86,0.00,,,0.00,WUHU216HW,2013-02-19 13:25:00,
2013-02-19 08:30:00,46.8,43.2,30.04,East,90,0.0,0.0,87,0.00,,,0.00,WUHU216HW,2013-02-19 13:30:00,
2013-02-19 08:35:00,47.2,43.2,30.04,East,90,0.0,0.4,86,0.00,,,0.00,WUHU216HW,2013-02-19 13:35:00,
2013-02-19 08:40:00,47.5,43.2,30.04,East,90,0.0,0.4,85,0.00,,,0.00,WUHU216HW,2013-02-19 13:40:00,
2013-02-19 08:45:00,47.9,43.6,30.04,East,90,0.0,0.4,85,0.00,,,0.00,WUHU216HW,2013-02-19 13:45:00,
2013-02-19 08:50:00,48.2,43.9,30.04,East,90,0.4,0.4,85,0.00,,,0.00,WUHU216HW,2013-02-19 13:50:00,
2013-02-19 08:55:00,48.8,44.5,30.04,East,90,0.0,0.4,85,0.00,,,0.00,WUHU216HW,2013-02-19 13:55:00,
2013-02-19 09:00:00,49.3,44.9,30.04,East,90,0.0,0.7,85,0.00,,,0.00,WUHU216HW,2013-02-19 14:00:00,
2013-02-19 09:05:00,49.7,45.6,30.04,East,90,0.4,0.7,86,0.00,,,0.00,WUHU216HW,2013-02-19 14:05:00,
2013-02-19 09:10:00,50.2,45.8,30.04,East,90,0.0,0.4,85,0.00,,,0.00,WUHU216HW,2013-02-19 14:10:00,
2013-02-19 09:15:00,50.8,46.4,30.04,East,90,0.4,1.8,85,0.00,,,0.00,WUHU216HW,2013-02-19 14:15:00,
2013-02-19 09:20:00,51.5,46.8,30.04,East,90,0.4,2.0,84,0.00,,,0.00,WUHU216HW,2013-02-19 14:20:00,
2013-02-19 09:25:00,51.8,47.2,30.04,East,90,0.9,2.0,84,0.00,,,0.00,WUHU216HW,2013-02-19 14:25:00,
2013-02-19 09:30:00,52.2,47.2,30.04,East,90,0.0,1.1,83,0.00,,,0.00,WUHU216HW,2013-02-19 14:30:00,
2013-02-19 09:35:00,52.7,47.4,30.03,East,90,0.0,1.6,82,0.00,,,0.00,WUHU216HW,2013-02-19 14:35:00,
2013-02-19 09:40:00,53.3,48.0,30.03,East,90,0.9,1.6,82,0.00,,,0.00,WUHU216HW,2013-02-19 14:40:00,
2013-02-19 09:45:00,53.6,48.3,30.03,East,90,2.0,2.0,82,0.00,,,0.00,WUHU216HW,2013-02-19 14:45:00,
2013-02-19 09:50:00,54.2,48.5,30.03,SW,225,1.6,2.0,81,0.00,,,0.00,WUHU216HW,2013-02-19 14:50:00,
2013-02-19 09:55:00,54.9,48.5,30.02,SSW,203,1.8,4.3,79,0.00,,,0.00,WUHU216HW,2013-02-19 14:55:00,
2013-02-19 10:00:00,55.4,48.6,30.01,SE,135,0.4,4.3,78,0.00,,,0.00,WUHU216HW,2013-02-19 15:00:00,
2013-02-19 10:05:00,55.8,49.3,30.01,South,180,0.2,3.4,79,0.00,,,0.00,WUHU216HW,2013-02-19 15:05:00,
2013-02-19 10:10:00,56.2,49.3,30.01,SW,225,3.4,3.4,78,0.00,,,0.00,WUHU216HW,2013-02-19 15:10:00,
2013-02-19 10:15:00,56.5,49.0,30.00,SSW,203,1.3,3.4,76,0.00,,,0.00,WUHU216HW,2013-02-19 15:15:00,
2013-02-19 10:20:00,56.9,49.3,30.00,SSW,203,0.2,3.4,76,0.00,,,0.00,WUHU216HW,2013-02-19 15:20:00,
2013-02-19 10:25:00,57.2,49.7,30.00,SSW,203,0.7,2.2,76,0.00,,,0.00,WUHU216HW,2013-02-19 15:25:00,
2013-02-19 10:30:00,57.6,49.7,30.00,SSW,203,0.4,1.1,75,0.00,,,0.00,WUHU216HW,2013-02-19 15:30:00,
2013-02-19 10:35:00,58.1,49.9,30.00,SSW,203,1.6,2.7,74,0.00,,,0.00,WUHU216HW,2013-02-19 15:35:00,
2013-02-19 10:40:00,58.7,50.4,30.00,SSW,203,0.4,2.7,74,0.00,,,0.00,WUHU216HW,2013-02-19 15:40:00,
2013-02-19 10:45:00,59.2,50.2,30.00,SSW,203,1.3,2.2,72,0.00,,,0.00,WUHU216HW,2013-02-19 15:45:00,
2013-02-19 10:50:00,59.6,49.9,29.99,SSW,203,1.8,3.4,70,0.00,,,0.00,WUHU216HW,2013-02-19 15:50:00,
2013-02-19 10:55:00,59.9,50.2,29.99,SSW,203,0.7,3.4,70,0.00,,,0.00,WUHU216HW,2013-02-19 15:55:00,
2013-02-19 11:00:00,59.9,50.2,30.00,SSW,203,1.1,2.5,70,0.00,,,0.00,WUHU216HW,2013-02-19 16:00:00,
2013-02-19 11:05:00,60.3,49.8,30.00,SSW,203,1.8,4.5,68,0.00,,,0.00,WUHU216HW,2013-02-19 16:05:00,
2013-02-19 11:10:00,60.5,49.5,30.00,SSW,203,3.1,4.5,67,0.00,,,0.00,WUHU216HW,2013-02-19 16:10:00,
2013-02-19 11:15:00,60.7,49.7,30.00,WSW,248,2.9,4.0,67,0.00,,,0.00,WUHU216HW,2013-02-19 16:15:00,
2013-02-19 11:20:00,60.5,50.3,30.00,SW,225,1.1,4.3,69,0.00,,,0.00,WUHU216HW,2013-02-19 16:20:00,
2013-02-19 11:25:00,59.9,50.2,30.00,SSW,203,1.6,5.4,70,0.00,,,0.00,WUHU216HW,2013-02-19 16:25:00,
2013-02-19 11:30:00,59.4,50.8,30.00,SSW,203,1.8,5.4,73,0.00,,,0.00,WUHU216HW,2013-02-19 16:30:00,
2013-02-19 11:35:00,58.9,50.9,29.99,SSW,203,3.1,3.4,75,0.00,,,0.00,WUHU216HW,2013-02-19 16:35:00,
2013-02-19 11:40:00,58.5,50.9,29.98,SSW,203,2.7,5.6,76,0.00,,,0.00,WUHU216HW,2013-02-19 16:40:00,
2013-02-19 11:45:00,58.0,50.8,29.99,SSW,203,3.4,5.6,77,0.01,,,0.01,WUHU216HW,2013-02-19 16:45:00,
2013-02-19 11:50:00,57.6,51.5,29.98,SSW,203,2.5,4.0,80,0.01,,,0.01,WUHU216HW,2013-02-19 16:50:00,
2013-02-19 11:55:00,57.2,51.1,29.97,SW,225,1.1,4.0,80,0.02,,,0.02,WUHU216HW,2013-02-19 16:55:00,
2013-02-19 12:00:00,56.9,51.1,29.97,SSW,203,0.4,4.0,81,0.02,,,0.02,WUHU216HW,2013-02-19 17:00:00,
2013-02-19 12:05:00,56.7,51.2,29.97,SW,225,0.4,2.9,82,0.02,,,0.02,WUHU216HW,2013-02-19 17:05:00,
2013-02-19 12:10:00,56.5,51.4,29.97,SW,225,1.1,2.5,83,0.02,,,0.02,WUHU216HW,2013-02-19 17:10:00,
2013-02-19 12:15:00,56.3,50.9,29.98,SW,225,0.4,2.0,82,0.03,,,0.03,WUHU216HW,2013-02-19 17:15:00,
2013-02-19 12:20:00,56.3,51.5,29.97,SW,225,0.7,2.0,84,0.03,,,0.03,WUHU216HW,2013-02-19 17:20:00,
2013-02-19 12:25:00,56.3,51.8,29.97,SSW,203,0.4,2.5,85,0.03,,,0.03,WUHU216HW,2013-02-19 17:25:00,
2013-02-19 12:30:00,56.5,52.0,29.97,SSW,203,0.4,2.5,85,0.03,,,0.03,WUHU216HW,2013-02-19 17:30:00,
2013-02-19 12:35:00,56.5,52.0,29.96,SSW,203,0.0,1.1,85,0.03,,,0.03,WUHU216HW,2013-02-19 17:35:00,
2013-02-19 12:40:00,56.5,51.7,29.96,SSW,203,1.1,1.1,84,0.02,,,0.03,WUHU216HW,2013-02-19 17:40:00,
2013-02-19 12:45:00,56.5,52.7,29.96,SSW,203,1.8,1.8,87,0.02,,,0.03,WUHU216HW,2013-02-19 17:45:00,
2013-02-19 12:50:00,56.5,52.7,29.96,SSW,203,1.6,2.2,87,0.03,,,0.04,WUHU216HW,2013-02-19 17:50:00,
2013-02-19 12:55:00,56.5,53.3,29.96,SSW,203,1.8,2.2,89,0.02,,,0.04,WUHU216HW,2013-02-19 17:55:00,
2013-02-19 13:00:00,56.3,52.8,29.95,SSW,203,0.4,2.0,88,0.02,,,0.04,WUHU216HW,2013-02-19 18:00:00,
2013-02-19 13:05:00,56.3,52.8,29.94,SW,225,0.7,1.8,88,0.03,,,0.05,WUHU216HW,2013-02-19 18:05:00,
2013-02-19 13:10:00,56.3,53.1,29.94,SSW,203,2.0,2.0,89,0.03,,,0.05,WUHU216HW,2013-02-19 18:10:00,
2013-02-19 13:15:00,56.3,53.1,29.94,SW,225,1.8,2.0,89,0.02,,,0.05,WUHU216HW,2013-02-19 18:15:00,
2013-02-19 13:20:00,56.5,53.3,29.93,SSW,203,0.4,2.2,89,0.03,,,0.06,WUHU216HW,2013-02-19 18:20:00,
2013-02-19 13:25:00,56.7,53.8,29.92,SSW,203,4.0,4.0,90,0.03,,,0.06,WUHU216HW,2013-02-19 18:25:00,
2013-02-19 13:30:00,56.7,53.5,29.92,SW,225,2.0,4.3,89,0.03,,,0.06,WUHU216HW,2013-02-19 18:30:00,
2013-02-19 13:36:00,56.5,53.6,29.92,SW,225,1.8,4.3,90,0.03,,,0.06,WUHU216HW,2013-02-19 18:36:00,
2013-02-19 13:41:00,56.5,53.6,29.92,SW,225,0.7,4.0,90,0.03,,,0.06,WUHU216HW,2013-02-19 18:41:00,
2013-02-19 13:46:00,56.5,53.6,29.91,East,90,1.1,3.4,90,0.02,,,0.06,WUHU216HW,2013-02-19 18:46:00,
2013-02-19 13:51:00,56.5,53.6,29.91,South,180,0.2,3.4,90,0.03,,,0.07,WUHU216HW,2013-02-19 18:51:00,
2013-02-19 13:56:00,56.3,53.5,29.91,South,180,2.2,4.0,90,0.03,,,0.07,WUHU216HW,2013-02-19 18:56:00,
2013-02-19 14:01:00,56.3,53.5,29.91,SW,225,0.4,4.0,90,0.02,,,0.07,WUHU216HW,2013-02-19 19:01:00,
2013-02-19 14:06:00,56.2,53.6,29.91,SW,225,3.4,4.0,91,0.02,,,0.07,WUHU216HW,2013-02-19 19:06:00,
2013-02-19 14:11:00,56.2,53.6,29.91,SW,225,1.1,4.5,91,0.03,,,0.08,WUHU216HW,2013-02-19 19:11:00,
2013-02-19 14:16:00,56.2,53.6,29.90,SSW,203,1.1,4.5,91,0.02,,,0.08,WUHU216HW,2013-02-19 19:16:00,
2013-02-19 14:21:00,56.2,53.6,29.91,SSW,203,0.7,4.3,91,0.03,,,0.09,WUHU216HW,2013-02-19 19:21:00,
2013-02-19 14:26:00,56.2,53.6,29.91,SW,225,0.4,3.4,91,0.03,,,0.09,WUHU216HW,2013-02-19 19:26:00,
2013-02-19 14:31:00,56.3,54.0,29.91,SW,225,2.5,3.1,92,0.03,,,0.09,WUHU216HW,2013-02-19 19:31:00,
2013-02-19 14:36:00,56.3,54.0,29.91,West,270,1.6,2.5,92,0.04,,,0.10,WUHU216HW,2013-02-19 19:36:00,
2013-02-19 14:41:00,56.2,53.8,29.91,SSW,203,0.9,2.9,92,0.05,,,0.11,WUHU216HW,2013-02-19 19:41:00,
2013-02-19 14:46:00,56.2,53.8,29.90,SSW,203,0.4,3.8,92,0.04,,,0.11,WUHU216HW,2013-02-19 19:46:00,
2013-02-19 14:51:00,56.2,54.2,29.90,SSW,203,2.0,4.0,93,0.05,,,0.12,WUHU216HW,2013-02-19 19:51:00,
2013-02-19 14:56:00,56.2,54.2,29.89,SSW,203,2.5,4.9,93,0.05,,,0.12,WUHU216HW,2013-02-19 19:56:00,
2013-02-19 15:01:00,56.2,54.2,29.89,SW,225,1.1,4.9,93,0.06,,,0.13,WUHU216HW,2013-02-19 20:01:00,
2013-02-19 15:06:00,56.2,53.8,29.88,SSW,203,2.5,4.0,92,0.05,,,0.13,WUHU216HW,2013-02-19 20:06:00,
2013-02-19 15:11:00,56.2,54.2,29.88,SSW,203,0.9,3.6,93,0.05,,,0.13,WUHU216HW,2013-02-19 20:11:00,
2013-02-19 15:16:00,56.2,54.2,29.88,SW,225,1.8,3.6,93,0.05,,,0.13,WUHU216HW,2013-02-19 20:16:00,
2013-02-19 15:21:00,56.2,54.2,29.88,SW,225,2.7,4.5,93,0.04,,,0.13,WUHU216HW,2013-02-19 20:21:00,
2013-02-19 15:26:00,56.3,54.4,29.88,WSW,248,2.5,4.5,93,0.04,,,0.13,WUHU216HW,2013-02-19 20:26:00,
2013-02-19 15:31:00,56.3,54.4,29.89,SSW,203,2.5,4.5,93,0.04,,,0.13,WUHU216HW,2013-02-19 20:31:00,
2013-02-19 15:36:00,56.2,54.2,29.89,SSW,203,1.3,4.5,93,0.03,,,0.13,WUHU216HW,2013-02-19 20:36:00,
2013-02-19 15:41:00,56.2,54.2,29.89,SSW,203,2.2,2.5,93,0.02,,,0.13,WUHU216HW,2013-02-19 20:41:00,
2013-02-19 15:46:00,56.2,54.2,29.89,SSW,203,0.4,2.5,93,0.01,,,0.13,WUHU216HW,2013-02-19 20:46:00,
2013-02-19 15:51:00,56.2,54.2,29.89,SSW,203,2.2,2.5,93,0.01,,,0.13,WUHU216HW,2013-02-19 20:51:00,
2013-02-19 15:56:00,56.2,54.2,29.89,SSW,203,0.7,3.4,93,0.00,,,0.13,WUHU216HW,2013-02-19 20:56:00,
2013-02-19 16:01:00,56.2,54.2,29.89,SSW,203,1.3,3.4,93,0.00,,,0.13,WUHU216HW,2013-02-19 21:01:00,
2013-02-19 16:06:00,56.2,54.2,29.89,SW,225,0.7,4.0,93,0.00,,,0.13,WUHU216HW,2013-02-19 21:06:00,
2013-02-19 16:11:00,56.3,54.4,29.89,SW,225,0.9,4.0,93,0.00,,,0.13,WUHU216HW,2013-02-19 21:11:00,
2013-02-19 16:16:00,56.2,54.2,29.89,SW,225,1.8,1.8,93,0.00,,,0.13,WUHU216HW,2013-02-19 21:16:00,
2013-02-19 16:21:00,56.2,54.2,29.89,SW,225,1.3,2.5,93,0.00,,,0.13,WUHU216HW,2013-02-19 21:21:00,
2013-02-19 16:26:00,56.3,54.4,29.89,SW,225,1.1,2.5,93,0.00,,,0.13,WUHU216HW,2013-02-19 21:26:00,
2013-02-19 16:31:00,56.3,54.4,29.89,SSW,203,0.4,2.5,93,0.00,,,0.13,WUHU216HW,2013-02-19 21:31:00,
2013-02-19 16:36:00,56.3,54.4,29.89,SSW,203,0.0,2.5,93,0.00,,,0.13,WUHU216HW,2013-02-19 21:36:00,
2013-02-19 16:41:00,56.3,54.4,29.89,SSW,203,0.9,2.5,93,0.00,,,0.13,WUHU216HW,2013-02-19 21:41:00,
2013-02-19 16:46:00,56.3,54.4,29.89,SSW,203,0.2,2.5,93,0.00,,,0.13,WUHU216HW,2013-02-19 21:46:00,
2013-02-19 16:51:00,56.3,54.4,29.89,SSW,203,0.7,0.9,93,0.00,,,0.13,WUHU216HW,2013-02-19 21:51:00,
2013-02-19 16:56:00,56.3,54.4,29.89,NNW,338,0.4,2.2,93,0.00,,,0.13,WUHU216HW,2013-02-19 21:56:00,
2013-02-19 17:01:00,56.3,54.6,29.89,SW,225,1.1,2.7,94,0.00,,,0.13,WUHU216HW,2013-02-19 22:01:00,
2013-02-19 17:06:00,56.3,54.6,29.89,SSW,203,1.3,2.7,94,0.01,,,0.14,WUHU216HW,2013-02-19 22:06:00,
2013-02-19 17:11:00,56.2,54.2,29.89,WSW,248,0.9,2.5,93,0.01,,,0.14,WUHU216HW,2013-02-19 22:11:00,
2013-02-19 17:16:00,56.2,54.5,29.89,SW,225,2.5,2.5,94,0.01,,,0.14,WUHU216HW,2013-02-19 22:16:00,
2013-02-19 17:21:00,56.2,54.5,29.89,SW,225,1.6,2.5,94,0.01,,,0.14,WUHU216HW,2013-02-19 22:21:00,
2013-02-19 17:26:00,56.2,54.2,29.89,SW,225,1.1,2.5,93,0.01,,,0.14,WUHU216HW,2013-02-19 22:26:00,
2013-02-19 17:31:00,56.2,54.5,29.89,West,270,0.4,2.0,94,0.01,,,0.14,WUHU216HW,2013-02-19 22:31:00,
2013-02-19 17:36:00,56.2,54.5,29.89,West,270,0.9,2.0,94,0.01,,,0.14,WUHU216HW,2013-02-19 22:36:00,
2013-02-19 17:41:00,56.0,54.3,29.89,West,270,0.4,1.1,94,0.01,,,0.14,WUHU216HW,2013-02-19 22:41:00,
2013-02-19 17:46:00,56.0,54.3,29.90,West,270,1.1,1.1,94,0.01,,,0.14,WUHU216HW,2013-02-19 22:46:00,
2013-02-19 17:51:00,56.0,54.0,29.90,West,270,0.0,1.1,93,0.01,,,0.14,WUHU216HW,2013-02-19 22:51:00,
2013-02-19 17:56:00,56.0,54.0,29.90,West,270,0.7,1.8,93,0.01,,,0.14,WUHU216HW,2013-02-19 22:56:00,
2013-02-19 18:01:00,56.0,54.0,29.90,NNW,338,0.4,1.8,93,0.00,,,0.14,WUHU216HW,2013-02-19 23:01:00,
2013-02-19 18:06:00,56.0,54.0,29.90,NNW,338,0.0,1.1,93,0.00,,,0.14,WUHU216HW,2013-02-19 23:06:00,
2013-02-19 18:11:00,55.8,54.1,29.90,NNW,338,0.7,1.6,94,0.00,,,0.14,WUHU216HW,2013-02-19 23:11:00,
2013-02-19 18:16:00,55.8,53.8,29.90,NNW,338,1.8,2.0,93,0.00,,,0.14,WUHU216HW,2013-02-19 23:16:00,
2013-02-19 18:21:00,55.8,53.8,29.91,NNW,338,0.0,2.0,93,0.00,,,0.14,WUHU216HW,2013-02-19 23:21:00,
2013-02-19 18:26:00,55.6,53.7,29.91,NNW,338,0.0,1.8,93,0.00,,,0.14,WUHU216HW,2013-02-19 23:26:00,
2013-02-19 18:31:00,55.6,53.7,29.91,NNE,23,0.2,1.3,93,0.00,,,0.14,WUHU216HW,2013-02-19 23:31:00,
2013-02-19 18:36:00,55.4,53.5,29.91,NNE,23,0.9,1.3,93,0.00,,,0.14,WUHU216HW,2013-02-19 23:36:00,
2013-02-19 18:41:00,55.4,53.5,29.91,NNE,23,0.2,1.3,93,0.00,,,0.14,WUHU216HW,2013-02-19 23:41:00,
2013-02-19 18:46:00,55.4,53.5,29.91,NNE,23,0.0,1.1,93,0.00,,,0.14,WUHU216HW,2013-02-19 23:46:00,
2013-02-19 18:51:00,55.3,53.3,29.92,NNE,23,1.1,1.3,93,0.00,,,0.14,WUHU216HW,2013-02-19 23:51:00,
2013-02-19 18:56:00,55.3,53.3,29.92,NNE,23,1.1,1.3,93,0.00,,,0.14,WUHU216HW,2013-02-19 23:56:00,
2013-02-19 19:01:00,55.3,53.3,29.92,NNE,23,0.4,1.8,93,0.00,,,0.14,WUHU216HW,2013-02-20 00:01:00,
2013-02-19 19:06:00,55.3,53.3,29.92,NNE,23,0.4,1.8,93,0.00,,,0.14,WUHU216HW,2013-02-20 00:06:00,
2013-02-19 19:11:00,55.1,52.7,29.92,NNE,23,0.4,1.3,92,0.00,,,0.14,WUHU216HW,2013-02-20 00:11:00,
2013-02-19 19:16:00,55.1,52.7,29.91,NNE,23,0.4,1.3,92,0.00,,,0.14,WUHU216HW,2013-02-20 00:16:00,
2013-02-19 19:21:00,55.1,52.7,29.92,NNE,23,1.1,1.1,92,0.00,,,0.14,WUHU216HW,2013-02-20 00:21:00,
2013-02-19 19:26:00,54.9,52.6,29.92,NNE,23,0.0,1.1,92,0.00,,,0.14,WUHU216HW,2013-02-20 00:26:00,
2013-02-19 19:31:00,54.9,52.6,29.92,NNE,23,0.4,1.8,92,0.00,,,0.14,WUHU216HW,2013-02-20 00:31:00,
2013-02-19 19:36:00,54.7,52.4,29.92,NNE,23,0.4,2.2,92,0.00,,,0.14,WUHU216HW,2013-02-20 00:36:00,
2013-02-19 19:41:00,54.5,52.2,29.92,NNE,23,0.2,2.2,92,0.00,,,0.14,WUHU216HW,2013-02-20 00:41:00,
2013-02-19 19:46:00,54.4,52.0,29.92,NNE,23,0.0,1.1,92,0.00,,,0.14,WUHU216HW,2013-02-20 00:46:00,
2013-02-19 19:51:00,54.0,51.4,29.92,NNE,23,0.0,1.1,91,0.00,,,0.14,WUHU216HW,2013-02-20 00:51:00,
2013-02-19 19:56:00,53.8,51.2,29.92,NNE,23,0.0,1.1,91,0.00,,,0.14,WUHU216HW,2013-02-20 00:56:00,
2013-02-19 20:01:00,53.6,51.0,29.92,NNE,23,0.0,0.0,91,0.00,,,0.14,WUHU216HW,2013-02-20 01:01:00,
2013-02-19 20:06:00,53.5,50.9,29.92,NNE,23,0.0,0.0,91,0.00,,,0.14,WUHU216HW,2013-02-20 01:06:00,
2013-02-19 20:11:00,53.3,50.7,29.93,NNE,23,0.0,0.0,91,0.00,,,0.14,WUHU216HW,2013-02-20 01:11:00,
2013-02-19 20:16:00,52.9,50.3,29.93,NNE,23,0.0,0.0,91,0.00,,,0.14,WUHU216HW,2013-02-20 01:16:00,
2013-02-19 20:21:00,52.6,50.0,29.93,NNE,23,0.0,0.0,91,0.00,,,0.14,WUHU216HW,2013-02-20 01:21:00,
2013-02-19 20:26:00,52.4,49.8,29.93,NNE,23,0.0,0.0,91,0.00,,,0.14,WUHU216HW,2013-02-20 01:26:00,
2013-02-19 20:31:00,52.2,49.6,29.93,NNE,23,0.0,0.0,91,0.00,,,0.14,WUHU216HW,2013-02-20 01:31:00,
2013-02-19 20:36:00,52.0,49.4,29.93,NNE,23,0.0,0.0,91,0.00,,,0.14,WUHU216HW,2013-02-20 01:36:00,
2013-02-19 20:41:00,51.8,49.0,29.93,NNE,23,0.0,0.0,90,0.00,,,0.14,WUHU216HW,2013-02-20 01:41:00,
2013-02-19 20:46:00,51.7,48.8,29.94,NNE,23,0.0,0.0,90,0.00,,,0.14,WUHU216HW,2013-02-20 01:46:00,
2013-02-19 20:51:00,51.5,48.6,29.93,NNE,23,0.0,0.0,90,0.00,,,0.14,WUHU216HW,2013-02-20 01:51:00,
2013-02-19 20:56:00,51.1,48.2,29.93,NNE,23,0.0,0.0,90,0.00,,,0.14,WUHU216HW,2013-02-20 01:56:00,
2013-02-19 21:01:00,50.9,48.1,29.93,NNE,23,0.0,0.0,90,0.00,,,0.14,WUHU216HW,2013-02-20 02:01:00,
2013-02-19 21:06:00,50.6,47.7,29.93,NNE,23,0.0,0.0,90,0.00,,,0.14,WUHU216HW,2013-02-20 02:06:00,
2013-02-19 21:11:00,50.2,47.3,29.93,NNE,23,0.0,0.0,90,0.00,,,0.14,WUHU216HW,2013-02-20 02:11:00,
2013-02-19 21:16:00,50.0,47.2,29.94,NNE,23,0.0,0.0,90,0.00,,,0.14,WUHU216HW,2013-02-20 02:16:00,
2013-02-19 21:21:00,50.0,47.2,29.93,NNE,23,0.0,0.0,90,0.00,,,0.14,WUHU216HW,2013-02-20 02:21:00,
2013-02-19 21:26:00,49.9,47.0,29.94,NNE,23,0.0,0.0,90,0.00,,,0.14,WUHU216HW,2013-02-20 02:26:00,
2013-02-19 21:31:00,49.5,47.0,29.94,NNE,23,0.0,0.0,91,0.00,,,0.14,WUHU216HW,2013-02-20 02:31:00,
2013-02-19 21:36:00,49.3,46.8,29.94,NNE,23,0.0,0.0,91,0.00,,,0.14,WUHU216HW,2013-02-20 02:36:00,
2013-02-19 21:41:00,49.3,46.8,29.93,NNE,23,0.0,0.0,91,0.00,,,0.14,WUHU216HW,2013-02-20 02:41:00,
2013-02-19 21:46:00,49.1,46.6,29.94,NNE,23,0.0,0.0,91,0.00,,,0.14,WUHU216HW,2013-02-20 02:46:00,
2013-02-19 21:51:00,49.0,46.4,29.94,NNE,23,0.0,0.0,91,0.00,,,0.14,WUHU216HW,2013-02-20 02:51:00,
2013-02-19 21:56:00,48.8,46.3,29.94,NNE,23,0.0,0.0,91,0.00,,,0.14,WUHU216HW,2013-02-20 02:56:00,
2013-02-19 22:01:00,48.6,46.2,29.94,NNE,23,0.0,0.0,91,0.00,,,0.14,WUHU216HW,2013-02-20 03:01:00,
2013-02-19 22:06:00,48.6,46.2,29.94,NNE,23,0.0,0.0,91,0.00,,,0.14,WUHU216HW,2013-02-20 03:06:00,
2013-02-19 22:11:00,48.4,46.0,29.94,NNE,23,0.0,0.0,91,0.00,,,0.14,WUHU216HW,2013-02-20 03:11:00,
2013-02-19 22:16:00,48.4,46.5,29.94,SW,225,0.4,1.8,93,0.00,,,0.14,WUHU216HW,2013-02-20 03:16:00,
2013-02-19 22:21:00,48.8,46.9,29.94,SW,225,0.2,1.8,93,0.00,,,0.14,WUHU216HW,2013-02-20 03:21:00,
2013-02-19 22:26:00,48.8,46.9,29.94,SW,225,0.0,0.9,93,0.00,,,0.14,WUHU216HW,2013-02-20 03:26:00,
2013-02-19 22:31:00,48.6,46.5,29.94,SW,225,0.0,0.4,92,0.00,,,0.14,WUHU216HW,2013-02-20 03:31:00,
2013-02-19 22:36:00,48.6,46.7,29.94,SW,225,0.0,0.0,93,0.00,,,0.14,WUHU216HW,2013-02-20 03:36:00,
2013-02-19 22:41:00,48.6,46.5,29.94,SW,225,0.0,0.0,92,0.00,,,0.14,WUHU216HW,2013-02-20 03:41:00,
2013-02-19 22:46:00,48.4,46.3,29.94,SW,225,0.0,0.0,92,0.00,,,0.14,WUHU216HW,2013-02-20 03:46:00,
2013-02-19 22:51:00,48.2,46.4,29.94,SW,225,0.0,0.7,93,0.00,,,0.14,WUHU216HW,2013-02-20 03:51:00,
2013-02-19 22:56:00,48.1,46.2,29.94,SW,225,0.0,0.7,93,0.00,,,0.14,WUHU216HW,2013-02-20 03:56:00,
2013-02-19 23:01:00,48.1,46.2,29.95,SW,225,0.0,0.4,93,0.00,,,0.14,WUHU216HW,2013-02-20 04:01:00,
2013-02-19 23:06:00,47.9,46.0,29.95,SW,225,0.0,0.4,93,0.00,,,0.14,WUHU216HW,2013-02-20 04:06:00,
2013-02-19 23:11:00,48.1,46.4,29.96,SW,225,1.1,2.0,94,0.00,,,0.14,WUHU216HW,2013-02-20 04:11:00,
2013-02-19 23:16:00,48.2,46.6,29.96,SW,225,0.0,2.0,94,0.00,,,0.14,WUHU216HW,2013-02-20 04:16:00,
2013-02-19 23:21:00,48.6,47.3,29.95,NNW,338,0.7,1.1,95,0.01,,,0.15,WUHU216HW,2013-02-20 04:21:00,
2013-02-19 23:26:00,48.8,47.2,29.96,NNW,338,1.1,1.1,94,0.01,,,0.15,WUHU216HW,2013-02-20 04:26:00,
2013-02-19 23:31:00,48.8,47.2,29.96,NNW,338,0.0,1.8,94,0.01,,,0.15,WUHU216HW,2013-02-20 04:31:00,
2013-02-19 23:36:00,48.6,47.0,29.96,NNW,338,0.0,1.8,94,0.01,,,0.15,WUHU216HW,2013-02-20 04:36:00,
2013-02-19 23:41:00,48.6,47.0,29.95,NNW,338,0.4,1.6,94,0.01,,,0.15,WUHU216HW,2013-02-20 04:41:00,
2013-02-19 23:46:00,48.4,46.8,29.95,NNW,338,0.4,1.6,94,0.01,,,0.15,WUHU216HW,2013-02-20 04:46:00,
2013-02-19 23:51:00,48.1,46.4,29.95,NNW,338,0.0,0.4,94,0.01,,,0.15,WUHU216HW,2013-02-20 04:51:00,
2013-02-19 23:56:00,47.9,46.3,29.95,NNW,338,0.0,0.4,94,0.01,,,0.15,WUHU216HW,2013-02-20 04:56:00,